OpenBCM V1.13 (Linux)

Packet Radio Mailbox

DB0FHN

[JN59NK Nuernberg]

 Login: GUEST





  
CX2SA  > KEPS     01.10.04 05:16l 165 Lines 7768 Bytes #999 (0) @ AMSAT
BID : ORB04274.N
Read: GUEST DL7NDR
Subj: 2Line Orbital Elements 04274.AMSAT
Path: DB0FHN<DB0MRW<OK0PKL<OK0PPL<DB0RES<ON0AR<LU6DTS<LU7EC<ED1ZAC<CX2SA
Sent: 041001/0309Z @:CX2SA.LAV.URY.SA #:20918 [Minas] FBB7.00e $:ORB04274.N
From: CX2SA@CX2SA.LAV.URY.SA
To  : KEPS@AMSAT


HR AMSAT ORBITAL ELEMENTS FOR AMATEUR SATELLITES IN NASA FORMAT
FROM WA5QGD FORT WORTH,TX September 30, 2004
SEND SUBSCRIBE/UNSUBSCRIBE TO majordomo@amsat.org ONLY
BID: ORB04274.N

DECODE 2-LINE ELSETS WITH THE FOLLOWING KEY:
1 AAAAAU 00  0  0 BBBBB.BBBBBBBB  .CCCCCCCC  00000-0  00000-0 0  DDDZ
2 AAAAA EEE.EEEE FFF.FFFF GGGGGGG HHH.HHHH III.IIII JJ.JJJJJJJJKKKKKZ
KEY: A-CATALOGNUM B-EPOCHTIME C-DECAY D-ELSETNUM E-INCLINATION F-RAAN
G-ECCENTRICITY H-ARGPERIGEE I-MNANOM J-MNMOTION K-ORBITNUM Z-CHECKSUM

TO ALL RADIO AMATEURS BT

AO-07
1 07530U 74089B   04273.98301822 -.00000029  00000-0  10000-3 0 03295
2 07530 101.6723 319.0385 0012207 019.7109 340.4433 12.53569043367044
AO-10
1 14129U 83058B   04274.51085639  .00000000  00000-0  10000-3 0  1070
2 14129  26.6726  69.0390 6031276 128.3943 303.1474  2.05869049160181
UO-11
1 14781U 84021B   04273.96942925  .00000135  00000-0  25592-4 0  5945
2 14781  98.1838 260.5920 0010445 113.3075 246.9232 14.79006957103334
RS-10/11
1 18129U 87054A   04273.88901115  .00000053  00000-0  41595-4 0 05086
2 18129 082.9199 070.6708 0013219 034.6957 325.5061 13.72745180865367
FO-20
1 20480U 90013C   04273.69111423 -.00000034  00000-0 -13469-4 0 07196
2 20480 099.0351 131.4063 0540771 110.0711 255.9417 12.83341662686083
RS-12/13
1 21089U 91007A   04274.06382456  .00000011  00000-0 -48992-5 0  7389
2 21089  82.9179 103.9430 0030883  83.4375 277.0293 13.74440837684762
RS-15
1 23439U 94085A   04273.91703272 -.00000039  00000-0  10597-3 0 08104
2 23439 064.8165 168.4647 0156034 002.4791 357.6873 11.27549916402045
FO-29
1 24278U 96046B   04274.18678026 -.00000047  00000-0 -14402-4 0  8046
2 24278  98.5829 352.3899 0351239 129.6759 233.5923 13.52903001401036
SO-33
1 25509U 98061B   04274.74439160  .00000165  00000-0  22835-4 0  2063
2 25509  31.4294  58.9359 0355423  58.5801 304.9055 14.27869501309713
AO-40
1 26609U 00072B   04272.16567843 -.00000138  00000-0  10000-3 0  4382
2 26609   9.6951 341.2883 7963935 324.2100   3.0065  1.25585554 17965
UO-14
1 20437U 90005B   04274.50651664  .00000006  00000-0  17594-4 0  6049
2 20437  98.2060 292.6483 0009802 245.9599 114.0570 14.31372654766888
AO-16
1 20439U 90005D   04274.13914681  .00000039  00000-0  30005-4 0  2911
2 20439  98.2382 306.9817 0010036 256.7888 103.2184 14.31630696766883
WO-18
1 20441U 90005F   04274.29713334  .00000025  00000-0  24879-4 0  4798
2 20441  98.2523 311.2004 0010524 256.5843 103.4173 14.31705876766963
LO-19
1 20442U 90005G   04273.71742635  .00000024  00000-0  24279-4 0 02411
2 20442 098.2637 314.7410 0010964 258.0988 101.8967 14.31877164766945
UO-22
1 21575U 91050B   04273.88432979  .00000036  00000-0  24755-4 0  2169
2 21575  98.2048 243.5949 0008064 147.7972 212.3720 14.39416447693057
KO-23
1 22077U 92052B   04274.63739788 -.00000037  00000-0  10000-3 0  2969
2 22077  66.0893 330.0152 0009661 316.7194  43.3066 12.86425457570209
AO-27
1 22825U 93061C   04274.09451057  .00000047  00000-0  34479-4 0  9516
2 22825  98.2446 277.5228 0007494 318.2423  41.8195 14.29086868574077
IO-26
1 22826U 93061D   04274.51959219  .00000033  00000-0  28819-4 0  6262
2 22826  98.2431 279.2088 0008567 317.1888  42.8623 14.29323578574192
KO-25
1 22828U 93061F   04272.05461050 -.00000041  00000-0 -48054-7 0 08902
2 22828 098.2364 277.1121 0009082 299.1505 060.8763 14.29642812542063
TO-31
1 25396U 98043C   04274.64930370 -.00000043  00000-0  00000 0 0   794
2 25396  98.5656 343.2474 0002215 191.2981 168.8150 14.23635228323489
GO-32
1 25397U 98043D   04273.85305295  .00000029  00000-0  31781-4 0  5714
2 25397  98.5586 340.4687 0001109 179.6095 180.5059 14.23052526323308
UO-36
1 25693U 99021A   04274.79774654  .00000014  00000-0  21641-4 0  5003
2 25693  64.5612   0.2539 0045960 245.3746 114.2568 14.78388814293479
SO-41
1 26545U 00057A   04274.57087277  .00000150  00000-0  38688-4 0  8907
2 26545  64.5611  17.1346 0020782 352.9104   7.1680 14.79864893216507
MO-46
1 26548U 00057D   04274.56424955  .00000167  00000-0  38946-4 0  9903
2 26548  64.5602   3.0072 0020990 335.2888  24.7216 14.82417558216791
SO-42
1 26549U 00057E   04273.75631258  .00000165  00000-0  41548-4 0 09708
2 26549 064.5557 026.8543 0020516 007.3898 352.7503 14.78757447216241
NO-44
1 26931U 01043C   04274.23186045  .00000143  00000-0  88642-4 0  8635
2 26931  67.0538 177.2864 0006782 271.5428  88.4909 14.29324770156615
AO-49
1 27605U 02058A   04274.81050234  .00000128  00000-0  41290-4 0  5497
2 27605  64.5583 203.8860 0083161 290.6520  68.5698 14.71936188 95670
SO-50
1 27607U 02058C   04274.31255961  .00000157  00000-0  46694-4 0  5303
2 27607  64.5591 209.5854 0084259 289.7473  69.4564 14.70731996 95516
AO-51
1 28375U 04025K   04274.74891422  .00000039  00000-0  25360-4 0   735
2 28375  98.2502 341.0933 0083517 294.8817  64.3704 14.40391492 13262
NOAA-10
1 16969U 86073A   04272.34518676 -.00000045  00000-0  12445-6 0  4087
2 16969  98.7609 271.5537 0012463 171.1321 189.0090 14.27213563937745
NOAA-11
1 19531U 88089A   04274.45628913 -.00000207  00000-0 -84621-4 0  2693
2 19531  98.8628 357.6411 0010982 330.0061  30.0476 14.14728609826202
NOAA-12
1 21263U 91032A   04274.39351829 -.00000050  00000-0 -26633-5 0  7558
2 21263  98.6785 261.0924 0013800 104.2417 256.0273 14.25414070695232
MET-3/5
1 21655U 91056A   04273.90393695  .00000051  00000-0  10000-3 0 07482
2 21655 082.5609 342.5468 0013536 159.3483 200.8189 13.16996308631053
MET-2/21
1 22782U 93055A   04274.86951539  .00000107  00000-0  83640-4 0   181
2 22782  82.5440 106.6984 0023491 128.8684 231.4577 13.83570702559718
OKEAN-4
1 23317U 94066A   04274.88746901  .00000303  00000-0  35255-4 0  4479
2 23317  82.5411 139.1274 0021102 272.4418  87.4379 14.81892759537502
NOAA-14
1 23455U 94089A   04274.37070178  .00000365  00000-0  21866-3 0  2969
2 23455  99.1299 311.9666 0009405  17.7902 342.3598 14.13493085502791
SICH-1
1 23657U 95046A   04274.87047419  .00000346  00000-0  41648-4 0  2515
2 23657  82.5255 279.9392 0022512 254.5526 105.3203 14.80926259489577
NOAA-15
1 25338U 98030A   04274.24967191  .00000053  00000-0  41332-4 0  7451
2 25338  98.5207 284.4594 0011420  41.6143 318.5904 14.24453855331746
RESURS
1 25394U 98043A   04273.96040626  .00000010  00000-0  22935-4 0 09150
2 25394 098.5729 344.1475 0001555 155.6579 204.4674 14.24024349323410
FENGYUN1
1 25730U 99025A   04274.03578517 -.00000290  00000-0 -13630-3 0  2447
2 25730  98.6052 280.2839 0015333 120.8557 239.4131 14.11777638277806
OKEAN-0
1 25860U 99039A   04273.96148149  .00000131  00000-0  27642-4 0 03061
2 25860 097.7888 304.9153 0001337 044.9757 315.1560 14.73119722279696
NOAA-16
1 26536U 00055A   04274.33896133  .00000094  00000-0  75507-4 0   425
2 26536  98.9740 225.8254 0011439  81.1021 279.1377 14.12157023207382
NOAA-17
1 27453U 02032A   04274.38278436  .00000240  00000-0  12433-3 0   663
2 27453  98.6924 345.4609 0012815  90.3037 269.9605 14.23574738117876
HUBBLE
1 20580U 90037B   04274.02666623  .00000837  00000-0  53693-4 0  1677
2 20580  28.4660 163.4720 0003802  36.5056 323.5785 14.99326023591157
UARS
1 21701U 91063B   04272.73570966 -.00000250  00000-0  57035-6 0 02793
2 21701 056.9791 169.7526 0004970 114.5504 245.6092 15.03624793714163
PO-34
1 25520U 98064B   04274.35118010  .00000874  00000-0  34659-4 0   224
2 25520  28.4617 248.8543 0005584 272.6157  87.3815 15.15759547327115
ISS
1 25544U 98067A   04274.97765046  .00013616  00000-0  12220-3 0  8100
2 25544  51.6355 145.8432 0009771 170.0391  32.0472 15.68576013334931
OO-38
1 26063U 00004C   04274.53028581  .00000033  00000-0  31606-4 0  1730
2 26063 100.2250  80.7714 0037221  66.3510 294.1570 14.35670239245034
NO-45
1 26932U 01043D   04274.29052603 -.00000018  00000-0  25161-4 0  8576
2 26932  67.0586 176.7813 0005607 288.6035  71.4474 14.29443794156656


Read previous mail | Read next mail


 15.06.2026 02:08:00lGo back Go up